Regional Weather Roundup
Issued by NWS

Home | Current Version | Previous Version | Graphics & Text | Print | Product List | Glossary Off
Versions: 1 2 3 4 5 6 7 8 9 10 11 12 13 14 15 16 17 18 19 20 21 22 23 24 25 26 27 28 29 30 31 32 33 34 35 36 37 38 39 40 41 42 43 44 45 46 47 48 49 50

000
ASUS43 KTOP 291908
RWRKS

WEATHER ROUNDUP FOR KANSAS
NATIONAL WEATHER SERVICE GOODLAND KS
200 PM CDT SAT AUG 29 2015

NOTE:  "FAIR" INDICATES FEW OR NO CLOUDS BELOW 12,000 FEET WITH NO
SIGNIFICANT WEATHER AND/OR OBSTRUCTIONS TO VISIBILITY.

KSZ001>006-013>018-027>032-041>047-292000-
NORTHWEST KANSAS

CITY           SKY/WX    TMP DP  RH WIND       PRES   REMARKS
GOODLAND       SUNNY     89  45  21 SW8       30.17F
HAYS           SUNNY     84  55  37 NE12G20   30.09F
HILL CITY      SUNNY     89  56  32 NE6       30.10F
RUSSELL        SUNNY     83  59  44 N9        30.06F
$$

KSZ061>065-074>080-084>089-292000-
SOUTHWEST KANSAS

CITY           SKY/WX    TMP DP  RH WIND       PRES   REMARKS
DODGE CITY     SUNNY     83  57  41 N12       30.11F
ELKHART          N/A     88  53  30 NE2         N/A
GARDEN CITY    SUNNY     86  56  35 N8        30.13F
GREAT BEND     SUNNY     82  57  42 N14       30.07F
LIBERAL        SUNNY     86  57  37 NE12      30.15F
PRATT          SUNNY     81  57  44 N14G20    30.09S
$$

KSZ066>073-081>083-090>101-292000-
SOUTHEAST KANSAS

CITY           SKY/WX    TMP DP  RH WIND       PRES   REMARKS
CHANUTE        CLOUDY    78  64  61 CALM      30.01F
COFFEYVILLE    CLOUDY    80  67  64 N6        29.99F
HUTCHINSON     CLOUDY    76  61  59 NE8       30.06F
MEDICINE LODGE   N/A     84  63  49 N8        30.04F
NEWTON         CLOUDY    70  57  64 NE9       30.09F
PARSONS        PTSUNNY   80  67  64 CALM      30.01F
WICHITA INTL   CLOUDY    72  61  68 NE10      30.06F
WICHITA JABRA  CLOUDY    69  62  78 N8        30.06F
WICHITA MCCONL CLOUDY    68  59  72 N10       30.06S
$$

KSZ007>012-019>026-033>040-048>060-102>105-292000-
NORTHEAST KANSAS

CITY           SKY/WX    TMP DP  RH WIND       PRES   REMARKS
CONCORDIA      CLOUDY    70  62  76 E3        30.08F
EMPORIA        CLOUDY    70  62  76 NW7       30.05F
LAWRENCE       CLOUDY    72  66  81 N5        30.03F
MANHATTAN      CLOUDY    69  63  81 N6        30.07S
MARYSVILLE     CLOUDY   N/A N/A N/A NE3       30.08F
OLATHE IND     CLOUDY    74  68  81 N7        30.03F
OLATHE EXE     CLOUDY    74  66  76 NW7       30.02S
SALINA         CLOUDY    72  62  71 N6        30.07F
TOPEKA BILLARD CLOUDY    72  66  81 N6        30.04F
TOPEKA FORBES  CLOUDY    74  64  71 NE3       30.04F
$$


USA.gov is the U.S. government's official web portal to all federal, state and local government web resources and services.